Hourly Data Report for July 10, 2021

POND INLET A
NUNAVUT
Current Station Operator: NAVCAN

72°41'22.000" N
77°58'08.000" W
61.60 m
2403206
71095
YIO

Download Data

Hourly Data (July 2021)
Hourly Data Report for July 10, 2021
TIME
LST
Temp Definition
°C
Dew Point Definition
°C
Rel Hum Definition
%
Precip. Amount Definition
mm

Wind Dir Definition
10's deg

Wind Spd Definition
km/h
Visibility Definition
km
Stn Press Definition
kPa
Hmdx Definition


Wind Chill Definition


Weather Definition


00:00 3.2 -0.3 78 0.0 18 5 16.1 100.31     LegendNANA
01:00 3.7 0.1 77 0.0 18 5 16.1 100.31     LegendNANA
02:00 1.9 0.1 88 0.0 24 8 16.1 100.34     LegendNANA
03:00 1.4 -0.1 90 0.0 22 8 16.1 100.36     LegendNANA
04:00 2.3 -0.3 83 0.0 25 5 16.1 100.34     LegendNANA
05:00 2.0 -0.4 84 0.0 LegendMM 4 16.1 100.36     LegendNANA
06:00 1.8 -0.5 85 0.0 24 9 16.1 100.38     LegendNANA
07:00 3.2 -0.5 77 0.0 25 5 16.1 100.37     LegendNANA
08:00 2.8 0.0 82 0.0 26 5 16.1 100.35     LegendNANA
09:00 4.2 -0.6 71 0.0 29 4 8.1 100.32     Haze
10:00 4.7 0.5 74 0.0 28 8 16.1 100.31     LegendNANA
11:00 5.0 0.2 71 0.0 34 5 9.7 100.30     Haze
12:00 6.6 -0.4 61 0.0 1 8 16.1 100.28     LegendNANA
13:00 7.9 0.3 59 0.0 4 9 16.1 100.26     LegendNANA
14:00 9.2 1.3 58 0.0 5 13 16.1 100.21     LegendNANA
15:00 8.0 1.2 62 0.0 6 11 16.1 100.21     LegendNANA
16:00 8.0 2.2 67 0.0 4 11 16.1 100.20     LegendNANA
17:00 8.6 2.5 66 0.0 6 13 16.1 100.21     LegendNANA
18:00 9.2 2.9 65 0.0 6 11 16.1 100.19     LegendNANA
19:00 7.6 2.5 70 0.0 6 11 16.1 100.15     LegendNANA
20:00 7.8 2.5 69 0.0 5 11 16.1 100.12     LegendNANA
21:00 9.0 2.8 65 0.0 6 9 16.1 100.10     LegendNANA
22:00 6.8 2.1 72 0.0 6 15 16.1 100.08     LegendNANA
23:00 6.0 1.9 75 0.0 6 11 16.1 100.06     LegendNANA

Notes on Data Quality.

Legend

  • E = Estimated
  • M = Missing
  • NA = Not Available*
  • [empty] = Indicates an unobserved value
Date modified: